[[{"header":{"parameterUnit":"m.s-1","parameterCategory":1,"la1":30.2991,"la2":30.254,"lo1":-89.0895,"lo2":-89.0444,"dy":0.0017,"dx":0.0017,"nx":28,"ny":28,"refTime":"2024-11-23T03:00:00:Z","depth":0,"parameterNumber":2,"parameterNumberName":"U-component_of_WINDS"},"data":[0,0,0,0,0,0,0,0,0,0,0,0,0,0,0,0,0,0,0,0,0,0,0,0,0,0,0,0,0,0,0,0,0,0,0,0,0,0,0,0,0,0,0,0,0,0,0,0,0,0,0,0,0,0,0,0,0,0,1.2653,1.2652,0,1.2633,1.2633,1.2633,1.2603,1.2602,1.2602,1.2601,1.2582,1.2582,1.2582,0,0,0,0,0,0,0,0,0,0,0,0,0,1.2664,1.2664,1.2653,1.2652,1.2652,1.2633,1.2633,1.2633,1.2603,1.2602,1.2602,1.2601,1.2582,1.2582,1.2582,0,0,0,0,0,0,0,0,0,0,0,0,0,1.2653,1.2664,1.2653,1.2635,1.2633,1.2634,1.2633,1.2633,1.2603,1.2602,1.2602,1.2601,1.2582,1.2582,1.2582,1.2598,0,0,1.2582,1.2582,0,0,0,0,0,0,0,0,1.2654,1.2653,1.2638,1.2636,1.2634,1.262,1.263,1.2621,1.2603,1.2615,1.2601,1.26,1.2595,1.2594,1.2592,1.2598,1.2597,1.2582,1.2582,1.2582,1.2582,0,0,0,0,0,0,0,1.2655,1.2654,1.2645,1.2638,1.2635,1.2628,1.2626,1.2628,1.261,1.2614,1.2611,1.2609,1.2594,1.2593,1.2592,1.2596,1.2582,1.2582,1.2582,1.2582,1.2613,1.2614,0,0,0,0,0,0,1.2658,1.2654,1.2646,1.2644,1.2642,1.2629,1.2626,1.2625,1.261,1.2607,1.261,1.2608,1.2593,1.2592,1.2591,1.2608,1.2582,1.2582,1.2582,1.2612,1.2613,1.2614,0,0,0,0,0,0,1.2658,1.2658,1.2646,1.2649,1.2647,1.2629,1.2629,1.2625,1.2623,1.2607,1.2604,1.2612,1.2592,1.2591,1.2597,1.2607,1.2582,1.2582,1.2611,1.2612,1.2614,1.2642,0,0,0,0,0,0,1.2659,1.2658,1.2664,1.2649,1.2647,1.2652,1.2629,1.2625,1.2623,1.2621,1.2608,1.2605,1.2592,1.2597,1.2597,1.2606,1.2582,1.261,1.2612,1.2613,1.264,1.2644,1.2648,0,0,0,0,0,1.2659,1.2673,1.2664,1.2663,1.2654,1.2653,1.2651,1.2636,1.2624,1.263,1.262,1.2605,1.2606,1.2598,1.2597,1.2607,1.2609,1.2611,1.2613,1.2638,1.2643,1.2647,0,0,0,0,0,0,1.2689,1.2671,1.2661,1.267,1.2663,1.2648,1.2654,1.2642,1.2638,1.2636,1.2617,1.2614,1.2622,1.2615,1.2606,1.2621,1.2605,1.2607,1.2625,1.2629,1.2633,1.2634,1.2582,0,0,0,0,0,1.2697,1.2697,1.2681,1.2691,1.2688,1.2672,1.2671,1.2659,1.2652,1.2649,1.2639,1.2632,1.2631,1.263,1.2628,1.264,1.2636,1.2646,1.265,1.2653,1.2654,1.2659,1.2663,1.262,1.262,1.262,0,0,1.2712,1.2702,1.2704,1.2696,1.269,1.2691,1.267,1.2672,1.2672,1.2649,1.2653,1.2646,1.2637,1.2645,1.2649,1.264,1.2666,1.2656,1.2658,1.2658,1.2661,1.2665,1.2669,1.2621,1.2621,1.2621,0,0,1.274,1.2734,1.274,1.2734,1.2724,1.2714,1.2715,1.2702,1.2696,1.27,1.2682,1.2683,1.2682,1.2676,1.2672,1.2699,1.2685,1.2699,1.2718,1.2723,1.2726,1.2729,1.2737,1.274,1.2701,1.2701,1.2701,0,1.2761,1.2761,1.2745,1.2748,1.2745,1.2725,1.2731,1.2726,1.2716,1.2715,1.2706,1.2703,1.2696,1.2702,1.2708,1.2707,1.2708,1.27,1.2727,1.273,1.2732,1.2739,1.2743,1.2703,1.2702,1.2702,1.2702,0,1.2786,1.2787,1.2794,1.2784,1.2782,1.2787,1.2771,1.2772,1.2761,1.2751,1.2755,1.2746,1.2741,1.2742,1.2732,1.2747,1.2742,1.273,1.2713,1.2738,1.2745,1.2747,1.2705,1.2704,1.2704,1.2704,0,0,1.2831,1.2813,1.2815,1.2811,1.2799,1.2799,1.2803,1.2798,1.2798,1.2793,1.2795,1.2794,1.2783,1.278,1.2769,1.2773,1.2793,1.2761,1.276,1.2766,1.2807,1.2815,1.2818,1.2785,1.2785,1.2786,1.2808,0,1.2855,1.286,1.2846,1.2855,1.2855,1.2836,1.2839,1.2832,1.2824,1.2823,1.2813,1.2812,1.2799,1.2796,1.28,1.279,1.2801,1.2788,1.2786,1.2786,1.2786,1.2822,1.283,1.2851,1.281,1.2811,1.2811,0,1.2884,1.2879,1.2888,1.2875,1.2874,1.2878,1.2872,1.2871,1.2863,1.2857,1.2853,1.284,1.2843,1.2829,1.2832,1.2823,1.2822,1.2817,1.2817,1.2815,1.2798,1.2819,1.2857,1.286,1.2815,1.2815,1.2815,0,1.2914,1.291,1.2914,1.2911,1.2897,1.2899,1.2893,1.2884,1.2882,1.2878,1.2876,1.2872,1.2869,1.2867,1.2853,1.2844,1.2858,1.2842,1.2851,1.2852,1.2853,1.2853,1.289,1.2856,1.2856,1.2855,1.2855,0,1.2941,1.2946,1.2927,1.2929,1.2935,1.2919,1.2925,1.2918,1.291,1.291,1.2895,1.2896,1.2879,1.2878,1.2867,1.2871,1.287,1.2865,1.2861,1.2865,1.2865,1.2862,1.286,1.2856,1.2856,1.2856,1.2856,0,1.2974,1.2961,1.2964,1.2951,1.2948,1.2952,1.294,1.2942,1.2933,1.2934,1.2933,1.2919,1.2917,1.2903,1.2899,1.2892,1.2898,1.2893,1.2901,1.2898,1.2908,1.2906,1.2943,1.2946,1.2911,1.2911,1.2912,0,1.2991,1.2995,1.2982,1.2981,1.2976,1.2975,1.2973,1.2958,1.2956,1.2947,1.295,1.2947,1.2943,1.2941,1.293,1.2926,1.2919,1.2933,1.2919,1.2922,1.2918,1.2917,1.2916,1.2935,1.2935,1.2936,1.2936,0,1.3023,1.3017,1.3014,1.3009,1.3007,1.3002,1.2997,1.2997,1.2981,1.2979,1.2977,1.2974,1.2969,1.2966,1.296,1.2954,1.2942,1.2941,1.2942,1.2945,1.2948,1.2945,1.2907,1.2939,1.2939,1.2939,1.2939,1.2938,1.3047,1.3049,1.304,1.3038,1.3032,1.3028,1.3028,1.3019,1.3017,1.3011,1.3003,1.3002,1.2994,1.2985,1.298,1.2978,1.2971,1.2974,1.2974,1.2975,1.2976,1.295,1.2978,1.2977,1.2977,1.2977,1.2977,0,1.3077,1.307,1.3068,1.3061,1.3059,1.3048,1.3042,1.3041,1.3039,1.3033,1.303,1.3027,1.3024,1.3013,1.3008,1.3009,1.3004,1.3009,1.3007,1.3006,1.2983,1.2982,1.3013,1.3013,1.3013,1.3013,1.3013,1.3013,1.3092,1.3094,1.3087,1.3086,1.308,1.3078,1.3075,1.3071,1.3065,1.3063,1.306,1.3053,1.3045,1.3039,1.3036,1.3033,1.3031,1.3038,1.3033,1.3011,1.3008,1.3004,1.3002,1.3038,1.3038,1.3055,1.3055,1.3055]},{"header":{"parameterUnit":"m.s-1","parameterCategory":1,"la1":30.2991,"la2":30.254,"lo1":-89.0895,"lo2":-89.0444,"dy":0.0017,"dx":0.0017,"nx":28,"ny":28,"refTime":"2024-11-23T03:00:00:Z","depth":0,"parameterNumber":3,"parameterNumberName":"V-component_of_WINDS"},"data":[0,0,0,0,0,0,0,0,0,0,0,0,0,0,0,0,0,0,0,0,0,0,0,0,0,0,0,0,0,0,0,0,0,0,0,0,0,0,0,0,0,0,0,0,0,0,0,0,0,0,0,0,0,0,0,0,0,0,2.576,2.576,0,2.5747,2.5747,2.5747,2.5697,2.5696,2.5695,2.5693,2.5681,2.5681,2.5682,0,0,0,0,0,0,0,0,0,0,0,0,0,2.5743,2.5744,2.576,2.576,2.576,2.5747,2.5747,2.5747,2.5697,2.5696,2.5694,2.5693,2.568,2.5681,2.5682,0,0,0,0,0,0,0,0,0,0,0,0,0,2.5743,2.5744,2.5761,2.5734,2.5731,2.5747,2.5747,2.5747,2.5697,2.5696,2.5694,2.5692,2.568,2.5681,2.5682,2.5724,0,0,2.5686,2.5686,0,0,0,0,0,0,0,0,2.5743,2.5743,2.5738,2.5736,2.5733,2.5722,2.5736,2.5739,2.5698,2.571,2.5693,2.5691,2.5696,2.5696,2.5697,2.5723,2.5722,2.5686,2.5686,2.5687,2.5687,0,0,0,0,0,0,0,2.5743,2.5744,2.5755,2.5738,2.5735,2.5723,2.5721,2.5737,2.5713,2.5709,2.5705,2.5704,2.5694,2.5696,2.5696,2.5722,2.5686,2.5687,2.5687,2.5688,2.5781,2.5783,0,0,0,0,0,0,2.5747,2.5744,2.5756,2.5755,2.5734,2.5724,2.5722,2.5727,2.5713,2.5709,2.5706,2.5702,2.5695,2.5695,2.5696,2.5742,2.5687,2.5688,2.5689,2.5779,2.5781,2.5783,0,0,0,0,0,0,2.5746,2.5748,2.5756,2.5748,2.5749,2.5726,2.5733,2.5728,2.5729,2.571,2.5706,2.5712,2.5694,2.5694,2.5717,2.5741,2.5688,2.5689,2.5777,2.578,2.5782,2.5835,0,0,0,0,0,0,2.5746,2.5748,2.5763,2.5749,2.5749,2.5777,2.5734,2.5729,2.5731,2.5726,2.5715,2.5711,2.5692,2.5715,2.5718,2.5741,2.569,2.5775,2.5778,2.5781,2.5831,2.584,2.5847,0,0,0,0,0,2.5746,2.5779,2.5764,2.5766,2.5768,2.5779,2.5779,2.5756,2.5734,2.5749,2.5736,2.5712,2.5738,2.5718,2.572,2.5745,2.5773,2.5777,2.5781,2.5828,2.5838,2.5846,0,0,0,0,0,0,2.5797,2.5777,2.576,2.579,2.5787,2.577,2.5788,2.5768,2.5771,2.5766,2.5738,2.5736,2.5762,2.5756,2.5734,2.5784,2.5751,2.5756,2.5786,2.5796,2.5803,2.5803,2.5691,0,0,0,0,0,2.5812,2.5822,2.5804,2.5833,2.5832,2.5811,2.5815,2.5798,2.5793,2.5791,2.5781,2.5777,2.5785,2.579,2.5796,2.5831,2.5827,2.5849,2.5857,2.5863,2.5867,2.5884,2.5893,2.5797,2.5797,2.5797,0,0,2.5842,2.5833,2.5841,2.5843,2.5838,2.5849,2.581,2.5824,2.5832,2.5793,2.5813,2.5806,2.5801,2.5829,2.5842,2.5825,2.5893,2.5868,2.5873,2.5874,2.5889,2.5898,2.5906,2.5799,2.5799,2.5799,0,0,2.5903,2.5898,2.592,2.5916,2.5909,2.5895,2.5901,2.5888,2.5881,2.5902,2.5873,2.5883,2.5897,2.5893,2.5894,2.5955,2.5932,2.5958,2.5997,2.6014,2.6022,2.6028,2.6049,2.6057,2.5962,2.5963,2.5963,0,2.5942,2.5958,2.5934,2.595,2.5951,2.5917,2.5939,2.5937,2.5933,2.5935,2.5917,2.5933,2.5927,2.5954,2.5969,2.5971,2.5976,2.5958,2.6023,2.6029,2.6035,2.6054,2.6062,2.5966,2.5965,2.5965,2.5965,0,2.6005,2.6017,2.6036,2.6032,2.6036,2.6055,2.6034,2.6041,2.6025,2.6013,2.6034,2.6026,2.6029,2.6035,2.6018,2.606,2.6049,2.6028,2.5994,2.6047,2.6065,2.6072,2.597,2.5969,2.5968,2.5967,0,0,2.6096,2.608,2.6087,2.6084,2.6075,2.6084,2.6102,2.6105,2.6111,2.611,2.6124,2.6137,2.6117,2.6117,2.6101,2.6116,2.6164,2.6092,2.6092,2.6104,2.6208,2.6223,2.6232,2.615,2.6151,2.6152,2.6207,0,2.6153,2.6181,2.6161,2.6193,2.6203,2.6172,2.6188,2.6184,2.6174,2.6181,2.617,2.6179,2.6153,2.6153,2.6167,2.6155,2.6184,2.6151,2.6161,2.6162,2.6162,2.6241,2.6257,2.631,2.6214,2.6216,2.6216,0,2.6222,2.6223,2.6257,2.6245,2.6249,2.6263,2.6264,2.6272,2.6268,2.6259,2.626,2.624,2.6257,2.6226,2.6249,2.6227,2.623,2.6226,2.6227,2.6226,2.6191,2.624,2.6326,2.6333,2.6227,2.6226,2.6226,0,2.6283,2.6294,2.6315,2.6314,2.6302,2.6312,2.6308,2.6302,2.6305,2.6306,2.6308,2.6312,2.6314,2.6318,2.6299,2.6278,2.6324,2.6292,2.6317,2.6317,2.6326,2.6325,2.6412,2.6332,2.6331,2.6331,2.6331,0,2.6347,2.6368,2.6342,2.6354,2.6377,2.6354,2.6378,2.637,2.6365,2.6376,2.635,2.6361,2.6337,2.6345,2.6331,2.6351,2.6353,2.6346,2.6342,2.6347,2.6348,2.6348,2.6343,2.6333,2.6333,2.6332,2.6332,0,2.6418,2.6401,2.6422,2.6409,2.6406,2.6423,2.6412,2.6424,2.6412,2.6426,2.6428,2.6411,2.6419,2.6402,2.6408,2.6399,2.6427,2.6418,2.6429,2.6425,2.6451,2.6448,2.6538,2.6549,2.6464,2.6465,2.6465,0,2.6459,2.6474,2.6463,2.6468,2.6465,2.6474,2.6477,2.6456,2.646,2.6457,2.6469,2.6475,2.6479,2.6494,2.6482,2.6487,2.6477,2.6508,2.6477,2.6482,2.6475,2.6474,2.6475,2.6514,2.6515,2.6516,2.6517,0,2.6533,2.6524,2.6529,2.6532,2.6537,2.6538,2.6537,2.6544,2.6521,2.6527,2.6536,2.6539,2.6545,2.6552,2.6554,2.655,2.6529,2.6527,2.6533,2.6537,2.6542,2.6538,2.6444,2.6524,2.6524,2.6523,2.6523,2.6522,2.6589,2.6601,2.6595,2.6602,2.6599,2.6599,2.6609,2.66,2.6606,2.6609,2.6597,2.6608,2.6604,2.6604,2.6602,2.6611,2.6597,2.6605,2.6607,2.6609,2.6613,2.6543,2.6612,2.6611,2.6611,2.6611,2.6611,0,2.666,2.6655,2.6662,2.6661,2.6667,2.6648,2.6647,2.6653,2.6663,2.6661,2.6665,2.6675,2.6681,2.667,2.6675,2.6684,2.6675,2.6686,2.6684,2.6683,2.6626,2.662,2.6693,2.6693,2.6693,2.6693,2.6693,2.6693,2.6697,2.6717,2.6707,2.6725,2.672,2.673,2.6731,2.6731,2.6729,2.6741,2.6746,2.6739,2.6733,2.6738,2.6743,2.6739,2.6742,2.6756,2.6749,2.6695,2.6687,2.6679,2.6673,2.6757,2.6757,2.6805,2.6806,2.6806]}]]